2022-098P (53457 NORAD) Tracking and Keplerian Element Data

This shows tracking and keplerian element data for the satellite.

Feedback or suggestion? Click here.




ElementValue
Catalog53457
Name2022-098P
Epoch Orbit1552
Epoch Day325.10640343
Epoch Year2022
RAAN59.8135
Inclination97.527
Eccentricity0.0009349
Argument of Perigee293.2883
Mean Anonmoly188.4046
Mean Motion15.12717901
Decay Rate7.635E-05
L11 53457U 22098P 22325.10640343 .00007635 00000+0 43909-3 0 9998
L22 53457 97.5270 59.8135 0009349 293.2883 188.4046 15.12717901 15525



Live tracking and technical data element details for 2022-098P (NORAD 53457). 2022-098P can be tracked NOW for your location showing map with azimuth and elevation plus other details from your city location.







IsCatalogInMostPopularTable: catalog: 53457, numindb: 4
Update: records affected: 1



GetName: 53457 2022-098P

Hit Count: updated at: Thu, 08 Dec 2022 19:45:06 GMT